Home   Weather   Split   Past weeks

Flag for Croatia Past Weather in Split, Croatia — Yesterday and Last 2 Weeks

Now
67 °F

Passing clouds.


Feels Like: 67 °F
Forecast: 64 / 71 °F
Wind: 1 mph from Northeast

Location: Split/Marjan

Current Time: Oct 1, 2016 at 10:46:14 PM

Latest Report: Oct 1, 2016 at 10:00 PM


Visibility: 13 mi

Pressure: 30.03 "Hg

Humidity: 78%

Dew Point: 60 °F

Location of SplitLocation

Past Weather in Split — Graph

°F

Split Temperature Yesterday

Maximum temperature yesterday: 74 °F (at 2:00 PM)
Minimum temperature yesterday: 61 °F (at 7:00 AM)
Average temperature yesterday: 68 °F

High & Low Weather Summary for the Past Weeks

 TemperatureHumidityPressure
High80 °F (Sep 17, 3:00 PM)91% (Sep 18, 11:00 PM)30.36 "Hg (Sep 18, 11:00 PM)
Low59 °F (Sep 23, 6:00 AM)29% (Sep 27, 3:00 PM)29.70 "Hg (Sep 19, 5:00 PM)
Average68 °F52%30.06 "Hg
* Reported Sep 16 9:00 PM — Oct 1 9:00 PM, Split, Weather by CustomWeather, © 2016

Note: Actual official high and low records may vary slightly from our data, if they occured in-between our weather recording intervals... More about our weather records

Advertising

Split Weather History for the Previous 24 Hours

Scroll right to see more
 ConditionsComfort  
Time TempWeatherWind HumidityBarometerVisibility
9:00 PM
Sat, Oct 1
68 °FPassing clouds.1 mph82%30.03 "Hg19 mi
8:00 PM68 °FPassing clouds.No wind77%30.02 "Hg12 mi
5:00 PM73 °FPassing clouds.1 mph59%30.03 "Hg19 mi
4:00 PM74 °FPassing clouds.1 mph54%30.04 "Hg19 mi
3:00 PM74 °FPassing clouds.1 mph54%30.05 "Hg19 mi
2:00 PM74 °FPassing clouds.1 mph53%30.06 "Hg19 mi
1:00 PM72 °FPassing clouds.1 mph53%30.07 "Hg16 mi
12:00 PM71 °FPassing clouds.1 mph58%30.10 "Hg11 mi
11:00 AM70 °FPassing clouds.1 mph64%30.11 "Hg11 mi
10:00 AM67 °FPassing clouds.1 mph64%30.10 "Hg11 mi
9:00 AM64 °FPassing clouds.1 mph65%30.10 "Hg16 mi
8:00 AM63 °FPassing clouds.1 mph72%30.10 "Hg19 mi
7:00 AM61 °FPassing clouds.2 mph72%30.09 "Hg12 mi
5:00 AM62 °FClear.2 mph72%30.09 "Hg12 mi
2:00 AM64 °FPassing clouds.2 mph71%30.13 "Hg12 mi
11:00 PM
Fri, Sep 30
66 °FClear.1 mph74%30.14 "Hg12 mi
10:00 PM66 °FClear.1 mph73%30.13 "Hg12 mi
Weather by CustomWeather, © 2016

See weather overviewHow to use our weather pages